GFSSGP_con_mucape_057.txt.gz
CAPE
0 0 0 0 0 0 0 0 0 0 0 0 0 0 0 29 153 35 13 131 1 299 890 1288 1549 1303 1281 1878 2083 2179 2131 2130 2117 2085 1819 1276 972 380 61 26 0 0 0 0 0 0 0 0 0
0 0 0 0 0 0 0 0 0 0 0 0 0 0 0 138 87 0 466 61 42 233 623 653 1523 1409 1185 1431 1882 1986 2079 2150 2166 2024 1636 1176 867 398 60 13 0 0 0 0 0 0 0 0 0
0 0 0 0 0 0 0 0 0 0 0 3 0 0 0 138 35 0 473 54 81 196 284 714 1424 1397 1105 1094 1551 1743 1886 1996 2095 1970 1504 1092 766 523 210 60 28 0 0 0 0 0 0 0 0
0 0 0 0 0 0 0 0 0 0 31 55 0 4 81 85 25 58 843 159 111 80 323 1355 1351 1264 1177 915 942 1341 1577 1772 1926 1762 1405 1014 661 594 273 100 71 32 7 0 0 0 1 28 54
0 0 0 0 0 0 0 0 0 0 0 104 5 1 105 81 75 970 857 363 150 32 486 1136 1445 1331 1231 988 737 766 1051 1292 1503 1590 1272 1037 863 569 287 159 83 60 45 24 19 60 153 207 211
0 0 0 0 0 0 0 0 0 0 0 0 10 0 21 58 83 314 621 425 199 15 601 886 1506 1351 1165 1095 812 649 578 684 950 1114 1097 947 711 520 335 218 166 185 198 183 155 239 367 426 508
0 0 0 0 0 0 0 0 0 0 0 1 23 1 70 36 27 116 313 414 253 426 560 513 952 1243 1429 1139 851 726 615 536 546 683 752 702 658 544 439 308 291 330 350 329 301 414 542 641 713
0 0 0 0 0 0 0 0 0 0 0 0 22 2 36 42 33 40 154 244 375 930 710 564 496 906 893 830 1144 914 785 693 591 650 718 688 660 594 523 324 328 427 446 493 517 587 728 868 891
0 0 0 0 0 0 0 0 0 0 0 0 0 64 195 112 60 25 86 74 826 1184 814 630 438 518 536 559 822 1009 772 849 777 693 712 529 227 247 170 215 159 452 561 693 775 768 856 1014 1059
0 0 0 0 0 0 0 0 0 0 0 0 0 6 101 175 88 52 73 51 447 1375 1243 791 570 293 212 260 432 618 372 397 386 302 269 278 159 128 125 115 433 432 601 759 884 952 1050 997 770
0 0 0 0 0 0 0 0 0 0 0 0 0 0 91 122 228 128 37 38 130 1134 1520 1187 787 356 108 77 236 392 284 288 336 225 152 235 130 72 96 36 85 47 359 167 564 687 784 762 814
0 0 0 0 0 0 0 0 0 0 0 0 0 0 0 0 142 234 165 54 58 244 1001 1431 987 464 91 66 251 256 147 129 155 190 129 151 100 68 10 30 14 13 46 132 159 362 540 730 702
0 0 0 0 0 0 0 0 0 0 0 0 0 0 0 0 44 156 217 185 48 138 229 1155 1084 754 397 333 373 382 293 187 131 156 196 219 124 44 19 6 8 8 1 93 47 88 198 414 488
0 0 0 0 0 0 0 0 0 0 0 0 0 0 0 0 26 38 171 201 70 66 242 904 1264 1419 852 623 490 659 599 545 411 428 569 586 541 464 340 240 134 62 47 59 64 66 124 240 399
0 0 0 0 0 0 0 0 0 0 0 0 0 1 0 0 21 0 25 136 53 12 165 8 48 72 1804 1196 1213 1447 1354 917 966 877 897 835 800 697 621 535 529 372 114 96 182 259 170 284 365
0 0 0 0 0 0 0 0 0 0 0 0 0 0 1 2 0 0 2 7 79 5 15 584 345 1266 1784 1934 1628 1238 1296 1777 1606 1277 1262 1209 1152 969 909 835 761 643 401 178 248 405 352 226 586
0 0 0 0 0 0 0 0 0 0 0 0 0 0 0 2 0 0 0 3 176 14 9 1 1052 2536 2509 2507 2227 1905 1606 1324 1223 1639 1423 1534 1437 1337 1129 992 897 778 640 432 349 350 394 476 550
0 0 0 0 0 0 0 0 0 0 0 0 0 0 0 0 0 0 0 0 11 166 112 159 267 2503 2776 2748 2398 2282 2177 2126 1879 1482 1328 1389 1828 1594 1358 1197 1099 891 801 663 650 507 483 544 641
0 0 0 0 0 0 0 0 0 0 0 0 0 0 0 0 0 0 0 2 46 356 516 400 370 1432 2097 1449 1844 2112 2096 2128 1996 1579 1178 1228 2016 1922 1590 1432 1274 1100 1249 970 816 746 632 569 466
0 0 0 0 0 0 0 0 0 0 0 0 0 0 0 0 0 0 2 8 4 113 135 162 121 275 369 246 115 113 200 327 285 184 567 1036 1900 2139 2041 1761 1546 1576 1269 1170 966 966 784 617 554
0 0 0 0 0 0 0 0 0 0 0 0 0 0 0 0 0 0 0 0 54 78 58 42 46 63 229 339 380 465 328 323 550 995 823 1590 2041 1954 1957 1676 1395 1458 1498 1319 1149 1154 975 718 635
0 0 0 0 0 0 0 0 0 0 0 0 0 0 0 0 0 0 0 0 145 231 66 14 8 24 119 136 216 349 344 501 340 845 1630 1821 1933 1782 1762 1743 1602 1527 1605 1324 1234 1223 1082 980 814
0 0 0 0 0 0 0 0 0 0 0 0 0 0 0 0 0 0 0 0 94 82 211 231 217 103 146 273 360 562 577 607 664 789 1716 1806 1796 1815 1799 1703 1491 1651 1746 1406 1351 1241 1154 965 825
8 3 0 0 0 0 0 0 0 0 0 0 0 0 0 0 0 0 0 0 0 0 0 0 115 16 13 154 572 632 703 933 1022 1605 1884 1777 1761 1757 1734 1584 1381 1625 1735 1369 1478 1372 936 1107 977
2 2 0 0 0 0 0 0 0 0 0 0 0 0 0 0 0 0 0 0 0 0 0 0 0 0 79 228 474 772 749 677 913 1496 2111 2002 1810 1734 1661 1445 1387 1536 1657 1531 1556 1281 1294 1065 900
0 0 0 0 0 0 0 0 0 0 0 0 0 0 0 0 0 0 0 0 0 0 0 0 0 0 7 173 611 1230 1105 1360 1332 2209 2115 2005 1843 1735 1573 1335 1461 1580 1625 1424 1298 1231 1120 910 855
0 0 25 14 0 0 0 0 0 0 3 33 0 0 0 2 0 4 11 0 0 0 0 0 0 0 214 802 1249 1316 936 1042 2004 2412 2183 2011 1887 1864 1708 1358 1532 1646 1367 1319 1139 985 911 812 547
30 20 0 12 17 0 0 0 27 77 39 20 4 0 0 6 2 66 12 0 2 188 339 467 284 22 662 956 902 1506 1759 1767 2660 2490 2347 2086 1772 1415 1391 1394 1670 1529 1269 1120 989 713 553 563 415
17 31 1 47 4 0 0 0 87 20 9 7 23 0 0 13 0 53 26 316 649 800 852 869 583 91 385 876 1608 1999 2237 2418 2833 2855 2408 1864 1598 1421 1593 1645 1715 1352 1100 969 707 451 432 534 363
2 4 3 15 15 93 107 0 27 1 0 0 4 29 26 38 34 1 11 1142 1091 897 933 850 576 884 1553 2019 2144 2273 2407 2849 2623 2379 2306 2102 1766 1737 1733 1580 1230 1046 875 721 283 360 468 317 235

GFSSGP_con_mucape_060.txt.gz
CAPE
0 0 0 0 0 0 0 0 0 0 0 0 0 0 10 108 142 57 13 19 15 238 782 1051 1519 2079 2389 2365 2348 2195 2004 1963 2023 1862 1270 869 661 384 38 30 10 0 0 0 0 0 0 0 0
0 0 0 0 0 0 0 0 0 0 0 0 0 0 66 129 112 132 29 15 2 454 703 626 1296 1773 2205 2244 2221 2133 2066 2071 2105 2003 1424 1024 729 389 57 18 0 0 0 0 0 0 0 0 0
0 0 0 0 0 0 0 0 0 0 0 0 0 0 82 96 100 116 86 30 53 304 461 492 1272 1562 1998 2180 2122 2110 2130 2122 2179 2013 1567 1147 812 512 259 60 29 0 0 0 0 0 0 0 0
0 0 0 0 0 0 0 0 0 0 0 0 0 26 96 33 134 91 12 0 21 211 192 818 1261 1258 1710 2059 2075 2061 2119 2180 2201 2128 1760 1278 880 650 391 92 61 30 0 0 0 0 4 25 48
1 0 0 0 0 0 0 0 0 0 0 2 0 21 100 72 145 99 18 17 7 79 94 929 1275 1022 1459 1868 1961 2024 2080 2118 2168 2157 1860 1453 1248 754 336 158 51 35 29 25 26 30 83 134 144
0 0 0 0 0 0 0 0 0 0 0 0 22 35 69 130 330 35 15 47 20 6 229 676 1291 1019 995 1312 1634 1735 1799 1941 2030 2012 1828 1584 1312 922 493 291 198 193 230 210 163 180 278 405 500
0 0 0 0 0 0 0 0 0 0 0 0 0 1 12 223 483 115 24 26 1 31 383 600 807 930 1029 880 1024 1286 1404 1493 1595 1599 1558 1467 1263 948 674 491 365 357 426 412 425 370 522 592 597
0 0 0 0 0 0 0 0 0 0 0 0 0 20 24 98 512 267 73 3 5 189 207 597 717 716 512 456 984 889 853 944 1036 1164 1189 1127 1006 831 676 456 435 464 564 601 604 564 666 740 798
0 0 0 0 0 0 0 0 0 0 0 0 0 21 107 78 143 231 110 299 324 276 164 419 591 645 536 449 645 911 794 760 697 685 826 606 284 333 238 334 251 540 595 661 726 739 766 905 906
0 0 0 0 0 0 0 0 0 0 0 0 0 6 86 84 100 197 245 372 460 457 402 145 360 457 418 474 533 495 313 342 264 229 252 192 130 127 161 234 403 465 604 692 799 930 922 646 588
0 0 0 0 0 0 0 0 0 0 0 0 0 0 43 103 77 110 212 395 634 681 556 324 97 222 206 183 411 342 222 253 200 141 103 155 57 87 174 126 176 198 295 170 431 611 684 555 553
0 0 0 0 0 0 0 0 0 0 0 0 0 0 0 0 81 62 24 255 545 840 776 470 145 13 3 13 185 215 156 181 146 74 34 54 67 2 29 79 43 106 39 99 63 305 437 604 566
0 0 0 0 0 0 0 0 0 0 0 0 0 0 0 0 0 33 69 38 224 829 1078 805 391 58 0 0 20 86 50 50 31 44 15 0 0 0 0 0 6 26 13 17 39 67 148 341 488
0 0 0 0 0 0 0 0 0 0 0 0 0 0 1 0 0 29 56 52 20 186 1184 1279 802 297 21 6 50 68 48 24 4 27 63 85 95 177 200 138 153 159 187 127 43 0 11 63 196
0 0 0 0 0 0 0 0 0 0 0 0 0 0 0 0 0 34 87 59 39 142 593 1182 1066 635 236 242 286 359 383 220 188 204 227 288 383 486 516 505 525 468 480 502 268 73 51 146 145
0 0 0 0 0 0 0 0 0 0 0 0 0 0 0 0 0 33 91 30 18 189 567 951 1085 764 595 426 412 458 419 422 374 292 330 484 649 736 784 838 829 765 736 692 523 308 128 298 287
0 0 0 0 0 0 0 0 0 0 0 0 0 0 0 1 0 0 103 38 16 53 131 785 565 459 792 1233 865 882 995 861 706 689 751 826 989 1032 1011 1192 1220 1136 1012 824 684 521 253 389 421
0 0 0 0 0 0 0 0 0 0 0 0 0 0 0 0 1 1 0 51 4 28 110 198 175 258 242 699 1332 1351 1244 1317 1368 1480 1469 1299 1300 1248 1196 1274 1338 1300 1153 959 794 665 405 395 430
0 0 0 0 0 0 0 0 0 0 0 0 0 0 0 0 0 0 0 0 0 33 29 39 38 433 1202 1759 1712 1655 1533 1456 1322 1171 897 1339 1345 1485 1494 1486 1476 1325 1245 1086 925 807 599 540 538
0 0 0 0 0 0 0 0 0 0 0 0 0 0 0 0 0 0 0 0 0 3 59 40 29 1050 1897 1513 1599 1443 1454 1179 1178 1366 1544 1546 1589 1579 1501 1460 1406 1348 1324 1195 1051 941 814 691 586
0 0 0 0 0 0 0 0 0 0 0 0 0 0 0 0 0 0 0 0 0 0 143 169 101 1013 1774 1645 1479 1358 1168 909 699 692 501 354 561 1473 1523 1448 1530 1490 1430 1298 1189 1044 916 824 704
0 0 0 0 0 0 0 0 0 0 0 0 0 0 0 0 0 0 0 0 0 0 45 224 228 733 1211 1239 932 1070 83 26 57 80 394 387 1046 1458 1643 1665 1665 1699 1561 1404 1352 1130 1032 903 832
0 0 0 0 0 0 0 0 0 0 0 0 0 0 0 0 0 0 0 0 0 0 0 52 110 115 446 715 259 61 7 0 0 205 437 846 1350 1603 1780 1888 1891 1706 1437 1341 1349 1143 1073 947 1083
0 0 0 0 0 0 0 0 0 0 0 0 0 0 0 0 0 0 0 0 0 0 31 89 73 59 34 34 14 1 0 0 46 241 466 976 1568 1757 1821 1763 1618 1537 1427 1488 1407 1213 1104 1111 1139
0 0 0 0 0 0 0 0 0 0 0 0 0 0 0 0 0 0 0 0 0 0 0 179 38 0 0 0 0 6 16 0 50 366 796 1257 1641 1710 1672 1629 1588 1435 1425 1533 1323 1200 1270 1217 724
0 0 0 0 0 0 0 0 0 0 0 0 0 0 0 0 0 0 0 0 0 0 0 29 96 6 0 0 0 52 85 13 117 396 1232 1445 1586 1659 1617 1594 1513 1167 1375 1566 1249 1490 1429 856 892
0 0 0 7 0 0 0 0 0 5 0 0 0 0 0 0 0 0 0 0 0 0 0 0 0 0 0 0 2 59 169 151 226 747 1469 1800 1716 1654 1646 1615 1358 1089 1349 1327 1280 1204 1058 1085 973
0 4 6 10 0 0 0 0 0 19 0 0 0 0 0 0 0 0 0 14 0 0 0 0 0 0 0 0 0 147 426 416 696 1210 1567 1726 1801 1773 1662 1592 1399 1218 1432 1290 1126 1026 949 886 616
0 1 7 1 28 2 8 0 16 10 0 0 0 0 0 0 0 3 39 28 64 361 161 275 321 98 5 111 294 703 759 735 1419 1552 1684 1692 1885 1853 1747 1517 1133 1409 1351 1046 1006 868 557 401 170
0 0 3 0 1 11 19 0 1 0 0 0 0 0 0 0 0 73 75 41 655 734 739 713 772 629 301 348 656 1210 1394 1496 1804 1720 1652 1990 2007 1865 1178 1155 1274 1394 1214 1006 829 536 236 218 253

GFSSGP_con_mucape_063.txt.gz
CAPE
0 0 0 0 0 0 0 0 0 0 0 0 0 0 0 0 65 29 29 0 46 17 505 1648 2336 2420 2327 2200 2091 1890 1728 1780 1728 1486 1224 975 897 422 88 72 9 0 0 0 0 0 0 0 0
0 0 0 0 0 0 0 0 0 0 0 0 0 0 10 20 40 42 55 22 25 58 347 931 2219 2331 2358 2209 2003 1811 1781 1883 1874 1645 1180 892 781 478 13 14 0 0 0 0 0 0 0 0 0
0 0 0 0 0 0 0 0 0 0 0 0 0 0 1 47 98 25 26 41 34 91 255 578 1984 2197 2321 2233 1988 1820 1797 1892 1928 1766 1400 1029 775 585 207 82 28 0 0 0 0 0 0 5 7
0 0 0 0 0 0 0 0 0 0 0 0 0 0 21 34 112 59 29 57 45 127 184 981 1667 1940 2136 2201 2032 1876 1898 1938 1975 1872 1576 1187 904 608 347 140 98 16 0 0 0 0 9 16 39
1 0 0 0 0 0 0 0 0 0 0 0 0 0 1 47 106 137 19 28 19 111 115 710 1420 1789 2010 2125 2059 1945 1966 1979 2010 2064 1701 1317 1215 756 376 186 65 30 9 5 2 8 53 84 88
4 0 0 0 0 0 0 0 0 0 0 0 0 0 55 175 117 68 11 0 5 53 96 343 1205 1521 1687 1933 1980 1934 1931 1976 2046 2085 1922 1686 1428 930 492 305 179 160 189 118 74 136 178 242 264
0 0 0 0 0 0 0 0 0 0 0 0 0 0 12 288 236 4 0 0 0 4 124 258 479 889 1587 1722 1836 1914 1946 2008 2002 1924 1812 1710 1550 1221 859 524 360 314 434 448 432 374 372 438 327
0 0 0 0 0 0 0 0 0 0 0 0 0 0 5 49 318 30 2 0 0 0 78 196 339 434 665 1030 1835 1926 1964 2046 1930 1878 1795 1673 1566 1321 1021 577 501 426 553 638 652 604 580 641 649
0 0 0 0 0 0 0 0 0 0 0 0 0 0 0 348 311 44 46 45 36 29 112 275 330 381 353 306 934 1638 1802 1870 1845 1796 1725 1359 1012 846 451 387 273 521 556 716 758 779 717 794 664
0 0 0 0 0 0 0 0 0 0 0 0 0 7 7 110 344 111 40 53 21 18 130 294 313 350 310 196 237 560 597 824 898 879 952 743 412 263 194 269 316 473 642 706 801 866 791 477 395
0 0 0 0 0 0 0 0 0 0 0 0 0 13 45 1 239 308 59 27 7 15 58 173 245 270 258 141 208 325 248 255 246 217 229 256 95 67 209 140 246 202 387 220 409 510 587 341 332
0 0 0 0 0 0 0 0 0 0 0 0 0 0 6 58 69 155 226 78 168 36 47 23 116 149 163 46 174 157 95 139 120 69 65 79 11 1 35 76 65 181 91 147 79 205 318 440 334
0 0 0 0 0 0 0 0 0 0 0 0 0 0 0 107 36 64 97 120 97 316 304 134 3 24 38 5 54 84 37 46 53 35 17 7 1 0 0 10 27 27 35 0 24 19 87 214 305
0 0 0 0 0 0 0 0 0 0 0 0 0 0 0 1 0 0 1 28 80 220 739 628 157 20 2 0 0 8 3 0 12 10 1 3 0 0 0 14 48 41 81 164 184 169 91 66 127
0 0 0 0 0 0 0 0 0 0 0 0 2 0 0 0 0 0 0 6 78 88 575 954 562 215 57 4 0 0 0 0 1 1 17 2 12 94 158 160 245 261 404 452 446 432 306 105 25
0 0 0 0 0 0 0 0 0 0 0 0 0 0 0 0 2 0 0 0 39 75 313 1020 945 690 316 42 7 2 8 183 424 414 325 107 187 278 355 419 476 512 716 815 793 700 555 326 86
0 0 0 0 0 0 0 0 0 0 0 0 0 0 0 0 0 3 0 0 4 17 208 529 1078 1075 775 396 192 53 269 390 468 341 300 279 290 329 493 610 697 715 951 1054 1105 963 789 572 210
0 0 0 0 0 0 0 0 0 0 0 0 0 0 0 0 0 0 0 0 0 1 68 345 576 1064 967 686 409 411 385 402 514 535 504 534 518 570 672 845 933 900 1048 1131 1223 1073 946 768 377
0 0 0 0 0 0 0 0 0 0 0 0 0 0 0 0 0 0 0 0 0 0 2 78 174 575 941 868 751 697 705 792 838 816 869 1050 1105 1025 1046 1153 1190 1098 1225 1289 1256 1136 1060 884 524
0 0 0 0 0 0 0 0 0 0 0 0 0 0 0 0 0 0 0 0 0 0 0 0 85 237 524 630 790 906 857 792 1006 1216 1305 1233 1123 1275 1449 1478 1255 1224 1318 1321 1276 1203 1115 945 656
0 0 0 0 0 0 0 0 0 0 0 0 0 0 0 0 0 0 0 0 0 0 0 0 0 111 239 439 595 784 821 868 1125 1206 1128 1076 919 944 1095 1160 1286 1406 1321 1178 1292 1293 1148 1028 769
0 0 0 0 0 0 0 0 0 0 0 0 0 0 0 0 0 0 0 0 0 0 0 0 0 0 7 468 715 804 514 843 825 902 1097 808 1233 1348 1221 1239 1276 1246 1115 1181 1385 1394 1219 1249 1057
0 0 0 0 0 0 0 0 0 0 0 0 0 0 0 0 0 0 0 0 0 0 0 0 0 20 53 617 876 796 645 464 626 632 435 483 293 399 868 909 963 1083 1165 1500 1520 1354 1309 1151 971
0 0 0 0 0 0 0 0 0 0 0 0 0 0 0 0 0 0 0 0 0 0 0 0 0 0 62 601 611 573 470 441 539 293 137 75 290 765 1152 1109 1127 1313 1547 1675 1492 1349 1280 1039 894
0 0 0 0 0 0 0 0 0 0 0 0 0 0 0 0 0 0 0 0 0 0 0 0 0 0 15 212 389 530 520 469 460 263 0 124 508 964 1246 1391 1546 1695 1657 1510 1356 1250 1147 1111 1024
0 0 0 0 0 0 0 0 0 0 0 0 0 0 0 0 0 0 0 0 0 0 0 0 0 0 0 3 113 281 472 481 391 14 20 180 609 959 1200 1643 1652 1514 1459 1394 1226 1145 1140 1077 1116
0 0 0 0 0 0 0 0 0 0 0 0 0 0 0 0 0 0 0 0 0 0 0 0 0 0 0 0 16 275 552 355 0 0 214 484 898 1079 1398 1620 1516 1509 1483 1268 1344 1088 1109 1205 876
0 0 0 0 0 0 0 0 0 0 0 0 0 0 0 0 0 0 0 0 0 0 0 13 0 0 0 32 47 15 0 10 20 122 495 825 1040 1181 1494 1591 1526 1600 1352 1338 1253 1165 1057 816 761
0 0 0 0 0 0 0 0 0 0 0 2 0 0 0 0 0 0 0 0 0 21 473 446 0 0 0 4 8 0 38 104 190 371 684 935 1163 1368 1601 1616 1671 1466 1224 1283 1429 1199 930 835 741
0 0 0 0 0 0 15 0 0 0 0 0 0 0 0 0 0 0 0 17 0 308 717 677 691 10 0 0 0 0 107 353 632 752 835 1040 1248 1527 1642 1745 1634 1451 1131 1271 1274 979 862 630 326

GFSSGP_con_mucape_069.txt.gz
CAPE
0 0 0 0 0 0 0 0 0 0 0 0 0 0 0 0 0 0 34 91 5 107 1459 1784 2043 2123 1941 1560 1356 1379 1565 1859 2069 2165 2128 2014 1914 1791 1492 1230 652 131 24 0 0 0 0 0 0
0 0 0 0 0 0 0 0 0 0 0 0 0 0 0 0 0 0 6 19 0 436 1986 1774 1989 2114 2037 1695 1384 1226 1248 1393 1590 1743 1753 1669 1492 1345 1023 641 176 5 0 0 0 0 0 0 0
0 0 0 0 0 0 0 0 0 0 0 0 0 0 0 0 33 10 30 39 12 378 1221 1882 2206 2102 2089 1883 1578 1340 1223 1235 1290 1341 1342 1239 1124 985 719 433 216 34 0 0 0 0 0 0 0
0 0 0 0 0 0 0 0 0 0 0 0 0 0 0 70 58 120 18 56 3 203 776 2016 2139 2162 2101 1971 1719 1537 1497 1451 1358 1337 1261 1199 1066 836 536 330 259 110 0 0 0 0 1 0 0
0 0 0 0 0 0 0 0 0 0 0 0 0 0 0 0 138 80 71 44 3 143 480 1703 2138 2220 2200 2079 1825 1673 1651 1536 1501 1499 1414 1253 1063 772 465 432 342 200 162 44 7 22 82 79 19
0 0 0 0 0 0 0 0 0 0 0 0 0 0 0 0 108 110 114 40 2 192 490 1130 2067 2176 2150 2045 1860 1688 1606 1601 1565 1551 1495 1371 1097 781 510 534 439 328 293 231 145 107 143 177 106
0 0 0 0 0 0 0 0 0 0 0 0 0 0 0 19 77 141 106 120 0 151 376 1107 1421 2063 2158 2115 1902 1793 1702 1699 1628 1558 1464 1411 1236 897 613 496 470 444 381 323 280 221 191 220 136
0 0 0 0 0 0 0 0 0 0 0 0 0 0 0 56 100 211 124 58 6 74 128 817 1154 1156 1398 1524 2102 1963 1873 1817 1792 1687 1588 1476 1344 1061 767 390 409 497 520 475 434 369 295 277 303
0 0 0 0 0 0 0 0 0 0 0 0 0 0 0 76 132 134 146 48 80 15 165 360 746 928 1022 987 1543 1914 1797 1809 1891 1849 1743 1371 796 787 602 260 353 516 650 654 629 621 476 412 208
0 0 0 0 0 0 0 0 0 0 0 0 0 0 0 36 132 148 164 88 74 2 86 263 567 858 953 852 1238 1412 1390 1459 1437 1343 1377 1252 913 899 470 479 351 609 598 716 784 805 595 218 46
0 0 0 0 0 0 0 0 0 0 0 0 0 0 0 0 79 96 156 129 5 0 33 238 527 717 665 441 871 1195 1298 1381 1524 1496 1612 1418 1096 896 733 429 454 299 356 80 226 214 88 35 64
0 0 0 0 0 0 0 0 0 0 0 0 0 0 0 0 21 43 109 146 122 9 12 149 401 560 620 459 484 649 861 1224 1225 1076 1359 1335 985 751 560 399 256 337 114 112 128 96 88 113 96
0 0 0 0 0 0 0 0 0 0 0 0 0 0 0 0 0 0 57 147 142 80 65 143 328 616 545 605 339 462 744 712 745 860 988 898 642 549 426 329 203 98 94 92 109 96 137 125 132
0 0 0 0 0 0 0 0 0 0 0 6 0 0 0 0 0 0 0 58 114 85 106 72 316 696 532 629 575 429 439 363 373 388 470 624 466 417 202 204 103 60 51 59 90 84 79 108 128
0 0 0 0 0 0 0 0 0 0 0 11 0 0 0 0 0 0 0 0 5 34 5 239 291 356 508 385 551 382 268 183 164 145 223 235 268 254 141 71 57 52 79 138 132 121 159 196 292
0 0 0 0 0 0 0 0 0 0 0 0 4 0 0 0 0 0 0 0 0 0 35 0 313 239 522 259 216 271 266 164 105 101 115 139 171 135 116 61 69 18 66 137 150 254 357 446 520
0 0 0 0 0 0 0 0 0 0 0 0 0 0 0 0 0 0 0 0 0 0 0 4 88 1027 585 329 214 147 197 209 112 73 65 113 137 98 154 156 72 18 42 187 253 284 480 628 697
0 0 0 0 0 0 0 0 0 0 0 0 0 0 0 0 0 0 0 0 0 0 0 0 0 928 1489 793 361 176 69 55 103 124 96 99 117 61 155 67 79 63 75 147 336 369 477 670 820
0 0 0 0 0 0 0 0 0 0 0 0 0 0 0 0 0 0 0 0 0 0 0 0 0 0 887 1082 795 470 388 207 96 220 199 155 160 51 21 6 43 40 29 193 422 514 549 731 916
0 0 0 0 0 0 0 0 0 0 0 0 0 0 0 0 0 0 0 0 0 0 0 0 0 0 1 573 1060 946 924 692 517 403 505 356 313 487 595 82 32 93 226 677 625 678 632 714 921
0 0 0 0 0 0 0 0 0 0 0 0 0 0 0 0 0 0 0 0 0 0 0 0 0 0 0 0 474 1157 1131 1143 1062 960 803 924 549 552 523 195 284 804 830 868 850 727 652 780 885
0 0 0 0 0 0 0 0 0 0 0 0 0 0 0 0 0 0 0 0 0 0 0 0 0 0 0 0 15 1050 695 919 1214 1489 1357 1558 1232 1286 657 573 745 1177 990 1362 1064 757 733 953 1031
0 0 0 0 0 0 0 0 0 0 0 0 0 0 0 0 0 0 0 0 0 0 0 0 0 0 0 0 0 41 757 956 1313 1565 2445 2373 2133 1656 1163 1380 1314 1418 1309 1717 1157 712 895 885 1252
0 0 0 0 0 0 0 0 0 0 0 0 0 0 0 0 0 0 0 0 0 0 0 0 0 0 0 0 0 23 284 1052 975 1467 1484 1763 1699 1932 2220 1971 2071 1712 1676 1517 1169 1011 897 1037 1253
0 0 0 0 0 0 0 0 0 0 0 0 0 0 0 0 0 0 0 0 0 0 0 0 0 0 0 0 0 0 93 467 1264 1622 1082 1353 1253 1562 2130 2352 2157 1771 1780 1360 1327 1200 1208 1171 1330
0 0 0 0 0 0 0 0 0 0 0 0 0 0 0 0 0 0 0 0 0 0 0 0 0 0 0 0 0 0 0 109 421 972 1090 924 891 1398 2379 2078 1750 1588 1482 1391 1369 1330 1495 1412 1310
0 0 0 0 0 0 0 0 0 0 0 0 0 0 0 0 0 0 0 0 0 0 0 0 0 0 0 0 0 0 0 34 184 946 1103 746 897 1375 1568 1533 1668 1674 1713 1639 1682 1795 1886 1540 1340
0 0 0 0 0 0 0 0 0 0 0 0 0 0 0 0 0 0 0 0 0 0 0 0 0 1 1 0 0 0 0 6 447 891 943 661 886 1562 1219 1498 1814 1870 1888 2014 2124 2085 1906 1722 1143
0 0 0 0 0 0 0 0 0 0 0 0 0 0 0 0 0 1 0 0 0 0 0 0 0 0 1 11 147 87 30 5 467 749 793 841 1234 1366 1144 1462 1831 1898 2192 2227 2225 2106 1726 1373 814
0 4 21 13 0 0 0 0 0 0 0 0 0 0 0 0 0 0 0 0 0 0 0 0 0 0 0 0 6 212 166 5 567 753 573 717 1136 1159 1089 1510 1692 1969 2261 2125 2065 1913 1472 1031 826

GFSSGP_con_mucape_072.txt.gz
CAPE
0 0 0 0 0 0 0 0 0 0 0 0 0 0 0 0 0 8 277 228 49 146 1241 1620 2017 1990 1959 2257 2388 2341 2250 2300 2306 2228 2140 2146 2138 2032 1819 1424 821 537 77 0 0 0 0 0 0
0 0 0 0 0 0 0 0 0 0 0 0 0 0 0 0 0 0 0 254 12 287 1235 1072 1908 1946 1802 1921 2100 2124 2221 2318 2361 2321 2242 2152 2022 1833 1434 1009 554 124 0 0 0 0 0 0 0
0 0 0 0 0 0 0 0 0 0 0 0 0 0 0 0 0 12 145 156 39 532 939 996 1897 1936 1883 1615 1724 1839 2047 2175 2254 2302 2222 2080 1845 1624 1313 996 603 73 0 0 0 0 0 0 0
0 0 0 0 0 0 0 0 0 0 0 0 0 0 0 0 0 120 209 129 42 428 770 1919 1852 1969 1995 1753 1477 1510 1731 1917 2053 2106 2021 1814 1515 1262 1002 758 458 230 0 0 0 0 0 0 0
0 0 0 0 0 0 0 0 0 0 0 0 0 0 0 0 6 205 239 153 65 278 429 2159 1942 2047 2098 1983 1688 1367 1382 1480 1608 1719 1634 1428 1187 1016 812 587 492 328 156 69 5 8 71 67 4
0 0 0 0 0 0 0 0 0 0 0 0 0 0 0 0 4 204 206 185 116 146 379 1700 2139 2085 2100 2014 1827 1553 1401 1360 1358 1384 1349 1311 1129 926 693 571 542 409 339 301 182 158 173 191 122
0 0 0 0 0 0 0 0 0 0 0 0 0 0 0 0 0 145 189 159 80 108 346 1254 1782 2086 2134 2073 1834 1679 1565 1494 1437 1361 1341 1295 1096 823 574 568 559 480 442 402 326 262 240 221 110
0 0 0 0 0 0 0 0 0 0 0 0 0 0 0 0 0 84 220 185 67 142 243 822 1139 1335 1527 1548 2021 1800 1703 1607 1528 1527 1478 1379 1193 884 586 491 493 574 571 527 446 376 296 263 213
0 0 0 0 0 0 0 0 0 0 0 0 0 0 0 0 8 53 168 171 104 79 185 401 514 706 912 725 1395 1824 1745 1814 1808 1602 1615 1047 215 382 242 102 355 568 676 629 589 481 390 244 103
0 0 0 0 0 1 0 0 0 0 0 0 0 0 0 0 31 83 95 252 160 47 76 209 354 500 596 339 791 1301 1139 1217 930 683 724 620 228 337 189 271 487 554 674 760 693 704 464 146 0
0 0 0 0 0 0 0 0 0 0 0 0 0 0 0 0 15 118 113 150 159 35 35 140 546 733 630 348 467 902 700 796 844 914 1038 1028 533 633 553 333 503 228 269 54 189 152 91 16 18
0 0 0 0 0 0 0 0 0 0 0 0 2 0 0 0 0 22 94 88 39 120 24 66 416 1006 1221 634 575 675 530 709 821 1057 1596 1511 1266 977 624 270 205 249 114 100 70 56 74 59 59
0 0 0 0 0 0 0 0 0 0 0 0 0 0 0 0 0 0 0 17 46 68 167 73 234 756 1087 1208 537 732 963 696 921 926 1623 1435 1054 777 566 358 231 117 99 50 67 57 44 80 81
0 0 0 0 0 0 0 0 0 0 0 0 0 0 0 0 0 0 0 0 31 17 21 88 253 782 864 1351 1365 738 836 719 777 718 752 1323 910 800 442 420 253 82 27 24 25 29 55 103 57
0 0 0 0 0 0 0 0 0 0 0 0 0 0 0 0 0 0 0 0 0 0 16 21 228 557 1146 763 811 994 467 470 343 370 558 832 1131 769 552 226 122 15 39 105 115 109 129 167 127
0 0 0 0 0 0 0 0 0 0 0 0 0 0 0 0 0 0 0 0 0 0 0 4 84 325 1047 1424 1129 546 298 263 208 307 429 867 723 616 541 93 65 13 51 74 94 204 250 280 387
0 0 0 0 0 0 0 0 0 0 0 0 0 0 0 0 0 0 0 0 0 0 0 0 3 245 829 1156 964 917 957 425 195 135 171 447 382 326 381 72 89 226 18 129 234 385 521 510 887
0 0 0 0 0 0 0 0 0 0 0 0 0 0 0 0 0 0 0 0 0 0 1 0 0 38 1339 1174 1252 828 488 422 279 136 137 244 324 266 423 174 456 259 256 384 364 1092 662 1055 1147
0 0 0 0 0 0 0 0 0 0 0 0 0 0 0 0 0 0 0 0 0 0 0 0 0 21 278 1217 492 949 933 1195 645 407 314 354 385 321 808 167 517 638 361 384 860 1097 1309 1461 1433
0 0 0 0 0 0 0 0 0 0 0 0 0 0 0 0 0 0 0 0 0 0 0 0 0 0 2 91 1519 1619 1485 1170 1422 875 816 741 441 788 943 971 894 814 358 1022 996 1505 1427 1647 1693
0 0 0 0 0 0 0 0 0 0 0 0 0 0 0 0 0 0 0 0 0 0 0 0 0 0 0 0 70 601 1033 1444 1501 1920 1401 1323 770 1042 1420 1273 1107 961 1117 1056 1574 1755 1958 1639 1710
0 0 0 0 0 0 0 0 0 0 0 0 0 0 0 0 0 0 0 0 0 0 0 0 0 0 0 0 0 172 301 1056 1074 1440 1547 1846 1366 1032 1153 1938 1066 1554 993 1999 1957 2063 2360 2109 2034
0 0 0 0 0 0 0 0 0 0 0 0 0 0 0 0 0 0 0 0 0 0 0 0 0 0 0 0 0 0 209 45 144 596 2472 3341 2999 1754 1187 2126 2216 2449 1732 2287 2387 2512 2502 2113 1946
0 0 0 0 0 0 0 0 0 0 0 0 0 0 0 0 0 0 0 0 0 0 0 0 0 0 0 0 0 0 2 147 121 262 837 1596 2405 2474 2588 2136 2647 2669 2663 2507 2819 3032 2399 2136 2124
0 11 0 0 0 0 0 0 0 0 0 0 0 0 0 0 0 0 0 0 0 0 0 0 0 0 0 0 0 0 0 19 214 449 145 1079 1389 2162 3458 3558 3405 2838 3318 2899 2869 2703 2366 2238 2267
45 46 0 0 0 0 0 0 0 0 0 0 0 0 0 0 0 0 0 0 0 0 0 0 0 0 0 0 0 0 1 0 6 189 159 173 677 1394 3216 3376 3613 3003 2960 2895 2816 2524 2206 2600 2285
27 44 41 0 0 0 0 0 0 0 0 0 0 0 0 0 0 0 0 0 0 0 0 0 0 0 0 0 24 64 37 26 38 227 887 305 1331 1340 2071 2636 3189 3196 2901 2787 2934 2104 2355 2897 2844
15 43 0 32 0 0 0 0 39 0 2 4 1 0 0 0 0 0 0 0 0 0 0 0 0 0 0 0 0 3 103 122 134 428 467 916 1530 2119 1926 2993 3462 3056 2763 2575 2972 2520 2806 2942 2870
50 49 44 67 87 61 0 42 44 0 10 11 0 2 5 0 0 0 0 0 0 0 0 0 0 0 0 0 0 0 0 52 294 476 416 1139 2036 1507 1558 2251 2573 2527 2287 2448 3005 3273 2987 2993 2856
74 88 62 402 74 99 117 18 34 38 3 3 16 23 13 1 0 0 0 0 0 4 0 0 0 0 0 5 0 0 2 2 43 578 600 753 1101 1128 1297 1808 2149 2027 1999 2635 3052 3130 2776 2829 2622

GFSSGP_con_mucape_075.txt.gz
CAPE
0 0 0 0 0 0 0 0 0 0 0 0 0 0 0 0 0 32 70 44 16 784 565 1326 2076 2382 2600 2715 2532 2296 2148 2079 2069 2055 2037 2172 2154 2092 1844 1654 1130 663 255 37 0 0 0 0 0
0 0 0 0 0 4 0 0 0 0 0 0 0 0 0 0 0 0 45 104 8 1025 737 651 1956 2176 2498 2613 2488 2341 2264 2224 2176 2152 2194 2268 2200 2058 1698 1269 758 289 44 0 0 0 0 0 0
0 0 0 0 0 1 0 0 0 0 0 0 0 0 0 0 0 0 31 308 10 940 815 669 1893 1980 2304 2427 2413 2292 2319 2346 2352 2325 2310 2268 2158 1904 1585 1228 806 129 0 0 0 0 0 0 0
0 0 0 0 0 0 0 1 0 0 0 0 0 0 0 0 0 44 196 304 124 496 846 1434 1758 1882 2083 2197 2232 2249 2354 2395 2439 2447 2334 2230 2032 1732 1381 1115 762 254 0 0 0 0 0 0 0
0 0 0 0 0 0 3 1 0 0 0 0 0 0 0 0 0 60 360 353 238 365 700 1627 1729 1781 1963 2001 1903 2036 2232 2267 2352 2435 2349 2157 1848 1450 1128 898 527 264 117 16 0 0 7 6 0
0 0 0 0 0 0 0 0 0 0 0 0 0 0 0 0 0 81 407 414 256 382 675 1873 1533 1716 1699 1800 1667 1631 1718 1886 2054 2116 2052 1821 1435 1131 898 705 569 466 297 181 78 70 46 68 28
0 0 0 0 0 1 0 0 0 0 0 0 0 0 0 1 0 51 355 276 260 376 522 1999 1054 1518 1772 1838 1746 1558 1444 1396 1422 1459 1429 1362 1196 972 744 595 585 507 421 399 317 239 126 77 50
0 0 0 0 0 0 3 0 0 0 0 3 0 0 1 0 0 0 182 211 208 264 352 1583 845 1022 1012 1029 1966 1780 1652 1560 1415 1353 1355 1308 1165 834 643 466 482 524 540 506 469 374 209 116 86
0 0 0 0 0 0 1 7 0 0 0 8 1 0 0 0 0 0 10 376 186 222 324 898 613 759 746 536 1225 1674 1533 1496 1416 1173 1359 800 50 193 117 26 401 601 581 617 627 547 419 121 72
0 0 0 0 0 1 6 24 1 0 0 0 0 0 0 0 0 0 0 116 232 217 300 390 491 681 603 266 871 1002 671 601 398 221 372 292 80 257 80 146 608 586 625 658 700 675 340 87 0
0 0 0 0 0 0 1 9 28 12 0 0 0 0 0 0 0 0 0 0 206 156 219 258 932 1727 650 300 421 865 390 448 677 630 1158 969 229 295 254 212 176 179 254 14 131 76 33 0 0
0 0 0 0 0 0 0 3 4 20 19 0 0 0 0 0 0 2 0 0 85 231 115 168 426 1049 1782 588 339 664 414 608 621 569 2161 1937 862 1516 1458 365 367 565 140 177 109 83 252 102 83
0 0 0 0 0 0 0 0 0 6 6 7 0 0 0 0 0 0 0 0 0 92 237 76 263 1395 1608 2683 807 832 987 479 638 754 1626 1254 1178 1932 1190 1138 266 325 119 126 136 97 157 113 166
0 0 0 0 0 0 0 0 0 0 0 0 0 0 0 0 0 0 0 0 6 145 152 302 171 1492 1327 2082 3010 2354 2017 962 717 703 1145 2482 1596 2517 876 909 382 184 55 20 61 160 142 334 265
0 0 0 0 0 0 0 0 0 0 0 0 0 0 0 0 0 0 0 0 0 7 91 97 263 1082 1723 1951 1655 2026 953 998 807 779 2282 2083 2668 2684 1797 596 495 208 215 264 330 293 254 234 361
0 0 0 0 0 0 0 0 0 0 0 0 0 0 0 0 0 0 0 0 0 0 0 6 52 398 1556 1877 1761 1171 795 987 664 704 884 1768 2606 2625 2378 584 383 224 162 91 246 319 413 660 855
0 0 0 0 0 0 0 0 0 0 0 0 0 0 0 0 0 0 0 0 0 0 0 0 13 206 909 1949 1408 1667 1684 988 387 502 286 1106 1301 1589 1896 818 398 1151 201 452 549 734 955 1259 1124
0 0 0 0 0 0 0 0 0 0 0 0 0 0 0 0 1 0 0 0 0 0 0 0 14 106 199 1488 2185 1804 1262 1090 933 578 564 1082 919 951 1184 705 648 893 373 583 868 1297 986 1148 1617
0 0 0 0 0 0 0 0 0 0 0 0 0 0 0 0 0 0 0 0 0 0 0 0 1 51 120 606 1443 1706 1338 1339 1090 911 1109 1254 1201 817 1421 600 907 1178 766 706 1778 1772 2104 1137 1686
0 0 0 0 0 0 0 0 0 0 0 0 0 0 0 0 0 0 0 0 0 0 0 0 0 5 96 254 1139 1288 2043 2133 1923 1564 1531 1530 1154 1712 1615 945 669 1348 880 1810 2437 2399 1282 1410 1779
0 0 0 0 0 0 0 0 0 0 0 0 0 0 0 0 0 0 0 0 0 0 0 0 0 2 7 46 121 400 1157 1734 1532 2160 2550 2020 1528 1568 1559 1228 888 1437 1361 1532 2192 2244 2013 1200 2081
0 0 0 0 0 0 2 0 0 0 0 0 0 0 0 0 0 0 0 0 0 0 0 0 0 0 12 169 125 592 293 240 556 689 1723 2340 2569 1630 1518 1776 1247 1778 2116 1602 2604 2066 2781 3081 1834
0 0 0 0 0 0 0 1 0 0 0 0 0 0 0 0 0 0 0 0 0 0 0 0 0 3 20 98 239 68 153 8 77 492 1735 2602 3839 2331 1726 2250 1784 2321 2056 1570 2430 3774 3371 2562 2575
0 1 4 8 11 19 1 24 0 4 4 0 0 0 0 0 0 2 0 0 0 0 0 0 0 0 0 3 61 228 197 334 191 390 887 826 1236 2090 1776 2383 2248 2623 2118 2291 2963 3694 3166 2698 3306
15 37 39 75 108 81 54 5 4 4 0 1 3 0 0 0 0 2 2 0 0 0 0 0 0 0 4 0 0 8 245 303 316 427 159 411 552 2112 3222 2606 2846 3006 2513 2709 3294 3792 3196 3963 3292
57 80 141 101 127 65 3 5 10 0 13 0 0 0 0 0 0 2 5 2 1 2 0 0 0 0 0 3 0 0 74 5 26 145 89 48 247 413 2532 4403 4009 3938 3623 3240 3548 3283 3560 3795 3390
74 81 73 105 111 92 75 41 43 1 0 0 0 0 0 0 3 8 2 1 2 2 2 0 0 0 0 0 1 10 49 424 265 750 791 175 643 504 818 3234 4882 4238 4012 4188 4279 3883 4142 3636 3582
50 77 94 184 160 119 60 54 65 59 7 1 0 0 4 9 3 7 9 10 7 10 5 0 1 0 0 0 0 0 0 11 180 917 1199 989 1049 1073 1363 1913 3415 4336 4307 4533 4645 3921 3935 3290 3043
110 117 179 155 141 221 187 126 67 23 0 40 46 19 15 22 24 15 14 21 18 16 9 7 5 0 0 1 2 0 0 0 31 205 511 1085 1767 1748 1526 1609 2749 3468 4507 4649 4518 3906 2863 2817 3431
242 237 234 454 240 217 264 105 33 107 26 102 53 37 40 60 32 34 28 2 0 0 3 22 4 0 0 0 0 0 6 0 89 79 124 637 1266 1560 1837 1717 1506 2624 3350 4018 3721 3453 2364 3142 3539

GFSSGP_con_mucape_078.txt.gz
CAPE
0 0 0 0 1 0 0 0 0 0 0 0 0 0 0 0 0 78 166 36 1156 593 1316 1577 2592 2829 2943 2563 2159 1991 1847 1814 1911 1932 1928 2056 2051 1889 1792 1596 1411 788 295 55 0 0 0 0 0
0 0 0 0 0 0 0 0 0 1 0 0 0 0 0 0 0 0 116 232 1317 703 1415 1107 2403 2746 2861 2715 2300 2029 1890 1930 1961 1945 2011 2112 2095 1905 1639 1453 1097 522 36 0 0 0 0 0 0
0 0 0 0 0 0 1 0 0 0 0 0 0 0 0 0 0 0 66 146 1460 892 1087 1568 2209 2590 2771 2759 2467 2158 2022 2002 2037 2058 2156 2179 2104 1904 1631 1245 912 301 0 0 0 0 0 0 0
0 0 0 0 0 0 18 0 0 0 0 0 0 0 0 0 0 0 103 220 301 1074 506 1631 2050 2425 2659 2746 2534 2336 2266 2206 2191 2222 2206 2251 2062 1752 1398 1160 789 280 20 0 0 0 0 0 0
0 0 0 0 0 0 0 0 1 0 0 0 0 0 0 0 0 0 205 241 274 1008 770 1456 1919 2291 2589 2687 2510 2439 2413 2337 2353 2346 2286 2189 1948 1558 1276 979 616 274 64 21 2 0 0 0 0
0 0 0 0 0 0 0 0 0 0 0 0 0 0 0 6 0 0 247 322 284 741 1200 1667 1713 2095 2277 2386 2359 2293 2275 2281 2359 2348 2256 2084 1760 1362 1062 826 483 324 150 94 81 35 6 5 4
0 0 0 0 0 0 0 0 0 0 0 0 0 0 0 12 0 0 108 200 542 656 1987 1788 1121 1620 2030 2049 2017 1990 1953 1986 2024 1957 1865 1701 1403 1057 829 623 500 445 344 309 282 184 89 72 53
0 0 0 0 0 0 0 0 0 0 0 0 0 0 2 0 0 0 0 216 294 337 2090 2071 989 764 1088 1348 1812 1769 1721 1661 1630 1560 1461 1297 1069 860 662 351 419 476 444 445 460 402 229 191 196
0 0 0 0 0 0 0 0 0 0 0 0 0 0 0 0 0 0 0 201 175 260 1885 1761 574 844 790 670 1212 1611 1589 1584 1513 1338 1371 900 344 310 217 64 211 536 535 548 553 558 486 370 292
0 0 0 0 0 0 0 0 7 0 0 0 0 2 0 0 0 0 0 0 268 234 426 1392 574 723 741 330 1286 872 786 815 763 571 945 484 143 243 9 99 437 511 595 663 666 681 666 310 6
0 0 0 0 0 0 0 0 0 6 0 0 0 0 0 0 0 0 0 0 56 311 363 1058 824 1163 796 407 1545 940 770 657 543 441 734 513 199 301 245 324 69 208 393 27 197 178 151 0 0
0 0 0 0 0 0 0 0 0 0 7 0 0 7 0 0 0 0 0 0 0 152 544 1210 1384 1759 1327 698 1167 1246 474 644 713 625 1073 1295 596 1168 1254 448 179 236 223 57 95 66 125 138 179
0 0 0 0 0 0 0 0 0 0 0 0 1 0 0 0 0 0 0 0 0 17 453 521 1372 2926 2635 3143 2738 1662 482 736 708 998 1190 882 1222 1018 1340 1864 977 748 578 278 275 148 486 437 447
0 0 0 0 0 0 0 0 0 0 0 0 0 0 0 0 0 0 0 0 84 278 649 310 1782 2620 2712 2889 3601 3678 3075 758 998 1008 1081 1538 1541 2204 1992 1990 1927 1205 856 529 397 378 496 333 242
0 0 0 0 0 0 0 0 0 0 0 0 0 0 0 0 0 0 0 25 31 12 211 343 627 2180 2126 2313 3113 3182 2755 1958 2431 1700 2622 1685 2433 2777 2025 1811 1273 1073 759 819 727 721 927 634 710
0 0 0 0 0 0 0 0 0 0 0 0 0 0 0 0 0 7 2 0 10 0 14 71 124 964 2427 2511 2401 2473 2199 2332 1933 2058 2958 2552 2307 2645 3096 1715 1447 1081 955 601 374 436 293 368 455
0 0 0 0 0 0 0 0 0 0 0 0 0 0 0 2 0 59 0 0 0 4 6 18 64 353 2426 1956 2250 2126 1733 1666 1747 1633 1447 2278 2723 2117 2276 1374 1377 1411 830 432 460 588 672 675 1128
0 0 0 0 0 0 0 0 0 0 0 0 0 0 0 0 0 48 0 0 0 8 98 153 218 310 843 1993 2080 1836 1895 1460 1262 816 844 1087 1486 1917 1962 1767 1303 1506 476 393 484 808 1040 1050 1283
0 0 0 0 0 0 0 0 0 0 0 0 0 0 0 0 0 0 20 0 0 35 141 92 382 390 600 1153 1678 1775 1831 1632 1245 1225 630 1095 755 1069 1371 1300 1163 925 467 343 950 1010 1552 1008 1226
0 0 0 0 0 0 0 0 0 0 0 0 0 1 0 0 0 2 15 0 0 39 88 122 63 298 225 694 1078 1262 1817 2014 1755 1040 811 949 982 884 894 894 602 577 669 1045 1063 1327 984 1474 1423
0 0 0 0 0 0 0 0 0 0 0 0 0 0 0 7 0 0 20 0 0 96 143 46 144 115 203 200 236 161 203 667 1014 1681 1273 1583 1235 1242 1033 980 687 424 1401 691 1093 1152 1839 1368 1512
0 0 0 1 3 0 1 0 0 0 2 3 0 0 0 0 0 4 0 0 0 0 15 21 4 23 95 471 462 543 332 42 13 279 1001 1632 1418 1089 1178 1282 1509 1125 491 1408 876 1563 1471 1540 594
0 0 0 0 3 13 0 15 0 0 0 1 7 1 0 0 0 0 0 0 0 0 0 14 130 267 153 238 283 404 516 196 109 510 1217 1342 2092 1378 1188 1252 1165 1339 999 631 1075 1915 1508 1588 885
0 0 0 2 10 29 0 19 0 2 46 30 25 0 0 0 0 0 0 0 0 0 0 20 83 304 262 228 302 674 617 493 351 223 339 400 846 2009 1864 1280 1138 1244 1150 1448 1304 1149 1582 1138 328
0 9 0 31 79 73 9 73 54 20 0 0 0 0 0 0 0 24 16 0 6 13 30 51 122 198 282 308 343 248 209 425 527 407 174 186 111 577 2307 1821 1572 1488 1552 1602 1703 1254 856 1428 1731
16 30 59 76 210 213 134 126 0 121 4 0 1 0 0 0 0 0 41 47 6 46 112 54 158 209 312 304 422 536 313 172 139 251 138 66 101 134 420 2390 1285 1096 1841 1273 1622 1488 1186 1634 2497
31 127 89 99 149 128 95 102 161 124 25 5 0 0 0 0 1 0 7 14 39 62 189 172 214 87 247 326 446 354 426 702 646 754 654 324 339 192 294 515 498 2723 2625 1973 2043 2040 1973 2422 2702
63 67 183 75 85 107 84 72 151 203 166 44 0 1 0 0 0 2 0 31 86 112 367 435 300 201 119 160 221 156 326 483 488 605 455 752 603 615 553 469 435 1012 3132 3002 2928 2638 2301 2365 2942
68 53 33 79 231 208 168 66 126 117 94 115 24 4 12 20 0 17 28 37 43 71 51 350 259 200 208 251 220 158 163 204 252 341 386 441 692 619 1069 843 699 321 952 3221 3089 2998 3055 3023 3229
65 71 31 52 105 156 55 11 166 81 97 34 4 46 6 27 1 28 34 43 14 22 14 34 311 118 24 9 20 110 178 34 204 204 234 296 250 340 401 658 1128 841 399 1833 3155 3184 3464 3141 3193

GFSSGP_con_mucape_084.txt.gz
CAPE
0 0 0 0 0 0 0 0 0 0 0 0 18 122 129 82 93 26 253 393 1019 1894 2159 2398 2325 2194 2077 1870 1725 1526 1482 1394 1451 1550 1608 1637 1618 1607 1526 1412 1227 571 174 0 0 0 0 0 0
0 0 0 0 0 0 0 0 0 0 0 0 0 0 85 104 117 395 438 490 943 1745 2102 2139 2391 2172 2090 1859 1642 1512 1578 1478 1508 1618 1690 1689 1641 1532 1226 1222 782 123 0 0 0 0 0 0 0
0 0 0 0 0 0 10 0 0 0 0 0 0 0 2 45 34 76 407 355 980 1577 1825 2141 2452 2135 2072 1890 1594 1552 1638 1520 1609 1736 1714 1547 1583 1483 1374 1142 680 36 0 0 0 0 0 0 0
0 0 0 0 0 0 1 14 0 0 0 0 0 0 0 0 6 60 333 357 726 1076 1587 2480 2493 2185 2017 1889 1662 1671 1734 1649 1704 1837 1835 1620 1389 1353 1176 983 579 160 0 0 0 0 0 0 0
0 0 0 0 0 0 1 2 0 0 0 0 0 0 0 34 70 206 357 288 330 576 1373 2268 2483 2351 2116 2002 1817 1792 1841 1742 1770 1893 1851 1633 1482 1233 1093 856 577 237 21 0 0 0 0 0 0
0 0 0 0 0 0 0 0 0 0 0 0 0 0 0 0 0 66 442 476 402 467 1288 2033 2400 1934 2096 2107 1913 1854 1851 1860 1935 1952 1929 1742 1386 1185 1010 795 519 319 117 51 5 18 0 0 0
0 0 0 0 0 0 0 0 0 0 0 0 0 0 0 0 0 0 31 512 565 656 859 1766 2001 1806 1700 1945 1938 1860 1837 1911 1884 1843 1778 1586 1344 1093 868 665 512 361 178 197 226 107 49 42 38
0 0 0 0 0 0 0 0 0 0 0 0 0 0 0 0 0 0 29 264 506 869 805 1217 1715 1666 1444 2045 2171 1989 1954 1964 1860 1810 1682 1492 1281 1017 751 333 434 511 355 327 368 327 188 147 122
0 0 0 0 0 0 0 0 0 0 0 0 0 0 0 0 0 0 160 662 631 936 820 865 1373 1502 1436 1525 1999 2096 2228 2113 1961 1920 1741 1184 773 527 399 133 401 541 511 480 522 570 400 262 211
0 0 0 0 0 0 0 0 0 0 0 0 6 0 0 0 0 0 2 137 1086 937 901 680 906 1108 1322 1561 1510 1721 1856 1764 1633 1537 1359 877 462 196 119 94 334 477 534 530 573 634 605 358 104
0 0 0 0 0 0 0 0 0 0 0 0 0 1 0 0 0 0 0 1 306 1390 994 825 615 659 883 1129 1213 1626 1755 1469 1349 1261 1072 651 243 165 137 34 79 92 215 52 182 252 290 185 127
0 0 0 0 0 0 0 0 0 0 0 0 0 0 0 1 0 0 0 0 35 1496 1375 1067 833 480 413 720 842 1044 1210 1188 1091 1021 874 448 157 79 46 23 8 4 9 27 49 0 1 65 69
0 0 0 0 0 0 0 0 0 0 0 0 0 0 0 0 1 0 0 0 131 242 1360 1704 1239 896 425 669 448 562 694 767 806 717 583 287 83 15 54 57 54 83 98 123 183 64 0 10 2
0 0 0 0 0 0 0 0 0 0 0 0 0 0 0 0 0 0 0 0 1 300 769 1037 1252 1055 498 769 572 365 279 288 250 233 270 185 20 0 8 99 150 133 228 206 302 265 100 85 68
0 0 0 0 0 0 0 0 0 0 0 0 0 0 0 0 0 0 0 0 0 2 320 823 785 837 593 798 791 507 352 321 277 231 212 272 118 0 80 184 226 298 359 354 476 481 341 204 162
0 0 0 0 0 0 0 0 0 0 0 0 0 0 0 0 0 0 0 0 0 0 111 876 1648 1084 834 1573 1516 1052 736 500 478 401 323 340 379 232 63 209 542 447 469 769 657 546 362 214 131
0 0 0 0 0 0 0 0 0 0 0 0 0 0 0 0 0 0 0 0 0 0 0 272 1936 1491 1238 1907 1791 1641 1235 1094 785 539 493 551 449 659 756 295 466 826 514 481 529 426 304 168 74
0 0 0 0 0 0 0 0 0 0 0 0 0 0 0 0 0 0 0 0 0 0 0 22 832 1719 1583 1498 1696 1738 1457 1067 973 730 841 709 713 703 872 1324 951 720 887 876 697 448 383 227 221
0 0 0 0 0 0 0 0 0 0 0 0 0 0 0 0 0 0 0 0 0 0 0 0 26 633 1142 1651 1584 1426 1301 1084 933 732 761 1374 1137 1079 1016 983 1291 1305 1245 1029 820 647 513 267 420
0 0 0 0 0 0 0 0 0 0 0 0 0 0 0 0 0 0 0 0 0 0 0 11 28 24 372 1218 1721 1602 1258 991 829 599 560 566 771 1563 1394 1382 1383 1441 1321 1105 880 690 518 315 472
0 0 0 0 0 0 0 0 0 0 0 0 0 0 0 0 0 0 0 0 0 0 0 0 0 0 0 319 1067 1435 1462 1257 796 769 618 687 601 555 1725 1683 1402 1256 1204 1105 1024 930 608 204 532
0 0 0 0 0 0 0 0 0 0 0 0 0 0 0 0 0 0 0 0 0 0 0 0 0 0 0 0 1 468 850 917 1026 736 474 258 873 869 792 1226 1621 1498 1171 1000 809 516 536 405 210
0 0 0 0 0 0 0 0 0 0 0 0 0 0 0 0 0 0 0 0 0 0 0 0 0 0 0 30 84 103 118 176 392 563 856 953 1016 1046 1216 1090 861 809 708 602 448 367 336 444 379
0 0 0 0 0 0 0 0 0 0 0 0 0 0 0 0 0 0 0 0 0 0 0 0 0 0 0 3 12 26 3 0 16 170 141 350 567 782 590 781 928 988 908 743 592 541 396 438 622
0 0 0 0 0 0 0 0 0 0 0 0 0 0 0 0 0 0 0 43 55 0 0 0 0 0 15 149 162 94 58 141 229 150 56 72 249 372 529 1076 1215 1123 1035 904 841 889 821 720 775
0 0 0 0 0 0 0 0 0 0 0 0 0 0 0 0 9 5 33 19 4 6 0 0 0 0 0 0 0 0 9 21 19 83 115 121 44 76 114 111 438 1172 1103 1122 1144 1035 930 953 815
0 0 0 0 0 0 0 0 0 0 0 0 0 0 6 11 8 2 0 0 4 4 0 0 0 0 0 4 0 0 69 149 150 155 154 125 160 391 416 288 213 320 942 1137 1112 1058 1083 1076 927
0 0 0 0 0 0 0 0 0 0 0 0 0 1 17 11 0 0 1 0 0 12 9 0 0 0 0 18 35 49 0 22 0 0 112 366 434 260 357 420 443 506 457 604 687 780 1122 1225 1164
0 0 0 0 0 0 0 0 2 17 1 1 0 11 12 3 1 20 31 51 60 56 4 0 0 0 0 10 42 0 28 31 0 0 22 13 95 186 183 170 165 221 369 357 303 437 884 1072 1223
0 2 8 0 0 13 8 0 0 0 8 0 0 0 1 10 18 1 0 0 0 0 0 0 0 0 33 57 15 0 6 0 0 0 0 0 0 0 0 84 70 122 105 67 129 233 304 673 1324